Ft Riley, KS

2:59 AM CDT on May 29, 2017 (GMT -0500)
Marshall Army Air Field

Weather History for KFRI - November, 2013

Change the Weather History Date:

Sunday, November 3, 2013

  Actual Average (KMHK) Record (KMHK)
Temperature  
Mean Temperature 54 °F -  
Max Temperature 64 °F 57 °F 80 °F (2015)
Min Temperature 43 °F 34 °F 24 °F (1999)
Degree Days  
Heating Degree Days 12    
Growing Degree Days 4 (Base 50)    
Moisture  
Dew Point 34 °F    
Average Humidity 47    
Maximum Humidity 59    
Minimum Humidity 33    
Precipitation  
Precipitation 0.15 in - - ()
Sea Level Pressure  
Sea Level Pressure 29.91 in    
Wind  
Wind Speed 17 mph (SSE)    
Max Wind Speed 29 mph    
Max Gust Speed 37 mph    
Visibility 10 miles    
Events      
Averages and records for this station are not official NWS values.
T = Trace of Precipitation, MM = Missing Value Source: NWS Daily Summary

Daily Weather History Graph

Daily Weather History Graph

Search for Another Location

Airport or City:

Trip Planner

Search our weather history database for the weather conditions in past years. The results will help you decide how hot, cold, wet, or windy it might be!

Date:

Astronomy

Nov. 03, 2013 Rise Set
Actual Time 6:56 AM CST 5:23 PM CST
Civil Twilight 6:29 AM CST 5:51 PM CST
Nautical Twilight 5:57 AM CST 6:23 PM CST
Astronomical Twilight 5:26 AM CST 6:54 PM CST
Moon 7:02 AM CST (11/3) 5:39 PM CST (11/3)
Length of Visible Light 11h 22m
Length of Day
10h 26m
New Moon, 0% of the Moon is Illuminated
Nov 3
New Moon
Nov 9
First Quarter
Nov 17
Full
Nov 25
Last Quarter
Dec 2
New

Hourly Weather History & Observations

Time (CST) Temp. Windchill Dew Point Humidity Pressure Visibility Wind Dir Wind Speed Gust Speed Precip Events Conditions
12:58 AM 45.0 °F 38.5 °F 29.5 °F 55% 30.12 in 10.0 mi SE 13.8 mph - N/A   Clear
1:58 AM 44.6 °F 37.8 °F 29.3 °F 55% 30.10 in 10.0 mi SSE 15.0 mph - N/A   Clear
1:58 AM 44.1 °F 38.6 °F 29.5 °F 57% 30.09 in 10.0 mi SSE 10.4 mph - N/A   Clear
2:58 AM 43.9 °F 38.3 °F 30.6 °F 59% 30.08 in 10.0 mi SSE 10.4 mph - N/A   Clear
3:58 AM 44.1 °F 39.0 °F 30.2 °F 58% 30.07 in 10.0 mi SSE 9.2 mph - N/A   Clear
4:58 AM 44.6 °F 38.1 °F 30.4 °F 57% 30.05 in 10.0 mi SSE 13.8 mph - N/A   Clear
5:58 AM 45.0 °F 37.9 °F 30.7 °F 57% 30.04 in 10.0 mi SSE 16.1 mph 24.2 mph N/A   Clear
10:26 AM 53.6 °F - 32.0 °F 44% 29.96 in 10.0 mi SSE 28.8 mph 33.4 mph N/A   Light Drizzle
10:55 AM 55.4 °F - 32.0 °F 41% 29.96 in 10.0 mi SSE 18.4 mph 28.8 mph N/A   Clear
10:58 AM 55.2 °F - 33.3 °F 43% 29.96 in 10.0 mi SSE 16.1 mph 28.8 mph 0.01 in   Clear
11:05 AM 55.4 °F - 32.0 °F 41% 29.95 in 10.0 mi South 23.0 mph 33.4 mph N/A   Light Drizzle
11:42 AM 57.2 °F - 33.8 °F 41% 29.93 in 10.0 mi SSE 20.7 mph 31.1 mph N/A   Clear
11:58 AM 57.9 °F - 34.0 °F 41% 29.91 in 10.0 mi SSE 19.6 mph 28.8 mph 0.00 in   Clear
12:58 PM 59.7 °F - 33.6 °F 37% 29.85 in 10.0 mi SSE 25.3 mph 36.8 mph 0.05 in   Partly Cloudy
1:58 PM 60.1 °F - 33.8 °F 37% 29.83 in 10.0 mi SSE 23.0 mph 27.6 mph 0.02 in   Partly Cloudy
2:58 PM 64.0 °F - 34.5 °F 33% 29.81 in 10.0 mi SSE 21.9 mph 36.8 mph N/A   Clear
3:58 PM 61.3 °F - 35.8 °F 39% 29.79 in 10.0 mi SSE 18.4 mph 25.3 mph N/A   Clear
4:58 PM 60.6 °F - 34.5 °F 38% 29.78 in 10.0 mi SSE 20.7 mph 26.5 mph 0.06 in   Mostly Cloudy
5:58 PM 57.7 °F - 37.0 °F 46% 29.79 in 10.0 mi SSE 17.3 mph 28.8 mph N/A   Partly Cloudy
6:58 PM 56.1 °F - 37.0 °F 49% 29.79 in 10.0 mi South 23.0 mph 28.8 mph N/A   Mostly Cloudy
7:58 PM 55.6 °F - 36.9 °F 49% 29.78 in 10.0 mi SSE 24.2 mph 34.5 mph N/A   Mostly Cloudy
8:45 PM 55.4 °F - 35.6 °F 47% 29.80 in 10.0 mi SSW 16.1 mph 32.2 mph N/A   Mostly Cloudy
8:53 PM 55.4 °F - 35.6 °F 47% 29.80 in 10.0 mi South 24.2 mph 32.2 mph N/A   Mostly Cloudy
8:58 PM 55.9 °F - 36.1 °F 47% 29.81 in 10.0 mi South 18.4 mph 32.2 mph 0.01 in   Mostly Cloudy
9:58 PM 55.8 °F - 36.5 °F 48% 29.81 in 10.0 mi South 19.6 mph 32.2 mph N/A   Scattered Clouds
10:58 PM 55.2 °F - 37.0 °F 50% 29.81 in 10.0 mi South 23.0 mph 34.5 mph N/A   Overcast